Location: Iesi
(43.5167°N, 13.2333°E)
Time: 02:27:12
(UTC+00:00)

NOSS 3-3 (A) - Pass Details

Date: 08 August 2020
Orbit: 818 x 1394 km, 63.4° (Epoch: 21 August)

Event Time Altitude Azimuth Distance (km) Brightness Sun altitude
Rises 21:01:12 0° 323° (NW) 3,975 8.6 -23.5°
Reaches altitude 10° 21:03:46 10° 324° (NW) 3,090 7.7 -23.7°
Maximum altitude 21:11:21 86° 53° (NE) 1,290 4.5 -24.5°
Enters shadow 21:14:19 45° 141° (SE) 1,731 4.8 -24.8°
